Regional Weather Roundup
Issued by NWS

Home | Current Version | Previous Version | Text Only | Print | Product List | Glossary Off
Versions: 1 2 3 4 5 6 7 8 9 10 11 12 13 14 15 16 17 18 19 20 21 22 23 24 25 26 27 28 29 30 31 32 33 34 35 36 37 38 39 40 41 42 43 44 45 46 47 48 49 50

000
ASUS43 KDTX 290510
RWRMI
MICHIGAN HOURLY REGIONAL WEATHER ROUNDUP
NATIONAL WEATHER SERVICE DETROIT/PONTIAC MI
100 AM EDT FRI AUG 29 2014

NOTE: "FAIR" INDICATES FEW OR NO CLOUDS BELOW 12,000 FEET WITH NO
SIGNIFICANT WEATHER AND/OR OBSTRUCTION TO VISIBILITY.

MIZ047>049-052>055-059>063-066>070-074>076-081>083-290600-
SOUTHEAST LOWER MICHIGAN

CITY           SKY/WX    TMP DP  RH WIND       PRES   REMARKS
ADRIAN         PTCLDY    61  56  83 SE5       30.14F
ALMA           CLOUDY    60  55  84 SE5       30.13F
ANN ARBOR      PTCLDY    60  53  77 E5        30.15R
BAD AXE        MOCLDY    52  51  95 CALM      30.16S
CARO           PTCLDY    52  51  94 CALM      30.15S
DETROIT CITY   PTCLDY    64  54  69 CALM      30.16S
DETROIT        MOCLDY    61  52  72 E5        30.15S
FLINT          MOCLDY    58  51  78 E5        30.15S
GROSSE ILE     PTCLDY    61  54  77 E5        30.14S
HILLSDALE      CLEAR     62  59  90 SE5       30.14S
HOWELL         MOCLDY    57  56  94 E6        30.14F

CITY           SKY/WX    TMP DP  RH WIND       PRES   REMARKS
JACKSON        PTCLDY    61  57  87 SE8       30.13F
LAMBERTVILLE   CLEAR     59  55  88 CALM      30.14F
LANSING        MOCLDY    62  54  74 E5        30.13F
LAPEER         FAIR      55  51  89 CALM      30.16S
MASON          MOCLDY    60  56  88 SE6       30.13F
MONROE         PTCLDY    55  54  94 CALM      30.13S
MT. CLEMENS    PTCLDY    61  51  67 E6        30.15S
PONTIAC        MOCLDY    59  48  67 E3        30.15S
PORT HOPE        N/A     55  50  83 S5        30.14S
PORT HURON     PTCLDY    48  48 100 CALM      30.16F
TRI CITIES     MOCLDY    60  51  72 SE8       30.15S
TROY           PTCLDY    63  49  61 NE5       30.18R
SAGINAW HB     MOCLDY    59  52  77 SE6       30.14S
$$
MIZ043>046-050>051-056>058-064>065-071>073-077>080-290600-
SOUTHWEST LOWER MICHIGAN

CITY           SKY/WX    TMP DP  RH WIND       PRES   REMARKS
BATTLE CREEK   MOCLDY    65  54  67 SE9       30.12S
BENTON HARBOR  CLOUDY    66  59  78 E8        30.07S
BIG RAPIDS     MOCLDY    61  56  83 CALM      30.11S
COLDWATER      PTCLDY    64  58  78 SE7       30.12S
FREMONT        FAIR      63  50  63 SE6       30.09S
HOLLAND        MOCLDY    64  53  67 E7        30.09F
GRAND RAPIDS   MOCLDY    62  55  77 E7        30.11S
IONIA          FAIR      59  55  84 SE8       30.12R
KALAMAZOO      MOCLDY    65  54  67 CALM      30.11S
LUDINGTON      CLOUDY    61  56  85 E3        30.07F
MARSHALL       PTCLDY    60  55  84 E6        30.11F
MOUNT PLEASANT CLOUDY    61  54  78 E8        30.12S
MUSKEGON       MOCLDY    65  51  60 SE10      30.08S
SOUTH HAVEN    MOCLDY    66  57  74 SE6       30.08S
$$
MIZ016>042-290600-
NORTHERN LOWER MICHIGAN

CITY           SKY/WX    TMP DP  RH WIND       PRES   REMARKS
ALPENA         MOCLDY    48  46  93 CALM      30.15R
BEAVER ISLAND  CLOUDY    52  51  96 CALM      30.10F
CADILLAC       CLOUDY    58  53  84 SE3       30.10F
CHARLEVOIX     MOCLDY    58  53  83 SE6       30.13F
FRANKFORT      CLOUDY    62  52  69 CALM      30.08S
GAYLORD        CLOUDY    53  51  93 SE6       30.14S
GRAYLING       CLOUDY    54  53  96 CALM      30.14S
HARBOR SPRINGS MOCLDY    56  49  78 NE6       30.11F
HOUGHTON LAKE  CLOUDY    54  51  90 SE5       30.13F
MANISTEE       CLOUDY    61  54  77 E5        30.09S
OSCODA         MOCLDY    51  49  93 CALM      30.14R
PELLSTON       PTCLDY    48  46  93 CALM      30.12F
ROGERS CITY    MOCLDY    54  48  82 S3        30.14F
TRAVERSE CITY  CLOUDY    60  53  77 CALM      30.09S
$$
MIZ007>008-015-290600-
EASTERN UPPER MICHIGAN

CITY           SKY/WX    TMP DP  RH WIND       PRES   REMARKS
KINROSS        PTCLDY    54  52  94 S3        30.12S
MACKINAC ISLAN PTCLDY    55  51  86 S5        30.11F
NEWBERRY       PTCLDY    47  46  95 S5        30.10S
S. S. MARIE    PTCLDY    50  48  93 CALM      30.12S
MUNISING         N/A     58  50  75 SW7       30.06F
$$
MIZ004>006-011>014-085-290600-
CENTRAL UPPER MICHIGAN

CITY           SKY/WX    TMP DP  RH WIND       PRES   REMARKS
MANISTIQUE     MOCLDY    52  51  95 CALM      30.08F
ESCANABA       CLOUDY    63  54  72 SE6       30.07F
MENOMINEE      CLOUDY    63  55  77 SE7       30.05F
SAWYER-GWINN   MOCLDY    55  52  89 S5        30.07S
$$
MIZ001>003-009>011-084-290600-
WESTERN UPPER MICHIGAN

CITY           SKY/WX    TMP DP  RH WIND       PRES   REMARKS
IRON MOUNTAIN  MOCLDY    59  55  87 SE7       30.05S
HOUGHTON       MOCLDY    56  53  90 SE5       30.01F
COPPER HARBOR    N/A     60  55  83 SW9       30.00F
$$

ABBREVIATIONS USED IN REMARKS
   TC - TEMPERATURE IN CELSIUS
  WCI - WIND CHILL INDEX
   HX - HEAT INDEX
  VSB - VISIBILITY



USA.gov is the U.S. government's official web portal to all federal, state and local government web resources and services.